STARLINK-32171, 60332

Orbit data source: Space-Track

STARLINK-32171, 60332 is a payload satellite owned by SpaceX/Seattle (US) in LEO that was launched on Fri, 02 Aug 2024 UTC via an FALCON 9 launch vehicle from the Air Force Eastern Test Range (AFETR). Payload-class satellites include a variety of spacecraft equipped with specific instruments for various scientific and technological missions. These include communications satellites like Starlink; space stations such as the ISS; scientific satellites like the Hubble; Earth observation satellites from companies like Planet Labs, Umbra, and HawkEye 360; GPS; miniature CubeSats for education and research; and military/defense satellites.

Loading next visibility...
Identifier
60332, 2024-136D
Orbit
LEO
Country
Flag of USUS
Related business
Manufacturer
SpaceX/Seattle
Mission
Operational Commercial Communications
Bus & Motor
STARLINK V2M, Unknown motor
Mass
730 kg wet, ~700 kg dry
Launch date (UTC)
2024-08-02 (1 year ago)
Launch vehicle
FALCON 9
Launch site
Air Force Eastern Test Range (AFETR)
Object type
Payload
Rocket body
Debris
Shape & HBR
Box + 2 Pan, 17.7 m
Radar Cross Section
33.884 m², Large (>1 m²)

Expand to show TLE details & history
Last TLE update: 11 hours ago

TLE from 11 hours ago
0 STARLINK-32171
1 60332U 24136D   25354.43542197 -.00000356  00000-0  10838-6 0  9995
2 60332  53.1608  83.5768 0001298  85.5580 274.5569 15.30190536 77530
Epoch: 2025-12-20T10:27Z
TLE epoch observation values (Epoch: 2025-12-20T10:27:00.458Z)
Latitude
-0.00001°
Longitude
-162.43738°
Altitude
476.073 km
Speed
7.629 km/s
True Right ascension
05h 34m 18s
True Declination
0° 00' 00"
Sunlit
Object was in full shadow at epoch
Visualization orbit readout
Latitude
Unknown
Longitude
Unknown
Altitude
Unknown
Speed
Unknown
Apparent Right ascension
Unknown
Apparent Declination
Unknown
Sunlit
N/A
Visualization observer readout
Local Sidereal Time
20:16:17
Azimuth
Unknown
Elevation
Unknown
Doppler factor
Unknown
Orbital elements
Apogee altitude
476.389 km
Perigee altitude
474.61 km
Semi-major axis
6,853.637 km
Eccentricity
0.00013
Inclination
53.1608°
RAAN
83.5768°
Arg. of periapsis
85.558°
True anomaly
274.54207°
Mean anomaly
274.5569°
Eccentric anomaly
274.54949°
Mean motion
3.82527 °/min
Orbital period
94.11 mins
BSTAR
1.0838e-7
Loading maneuver chart data...
Computing Atmospheric mass density...
Loading historical data...
Loading historical data...
Loading historical data...
Loading historical data...
Loading historical data...
Loading historical data...
Loading historical data...

Documentation

Showing up to 5 results
|